Regional Weather Roundup
Issued by NWS Jackson, KY

Home | Current Version | Previous Version | Text Only | Print | Product List | Glossary Off
Versions: 1 2 3 4 5 6 7 8 9 10 11 12 13 14 15 16 17 18 19 20 21 22 23 24 25 26 27 28 29 30 31 32 33 34 35 36 37 38 39 40 41 42 43 44 45 46 47 48 49 50

903
ASUS43 KJKL 030910
RWRJKL

EAST KENTUCKY HOURLY WEATHER ROUNDUP
NATIONAL WEATHER SERVICE JACKSON KY
500 AM EDT TUE MAY 03 2016

NOTE: "FAIR" INDICATES FEW OR NO CLOUDS BELOW 12,000 FEET WITH
NO SIGNIFICANT WEATHER AND/OR OBSTRUCTIONS TO VISIBILITY.

* THESE REPORTS ARE NOT UNDER NWS QUALITY CONTROL AND MAY NOT
  REPORT WEATHER SUCH AS PRECIPITATION AND FOG.

KYZ079-080-083-085-087-088-110-112-115-119-120-031000
...EASTERN KENTUCKY...

CITY           SKY/WX    TMP DP  RH WIND       PRES   REMARKS
JACKSON        LGT RAIN  56  54  93 W3        29.90R FOG
LONDON         CLOUDY    57  56  96 NW3       29.90R
SOMERSET*      CLOUDY    54  54 100 N6        29.93R
MONTICELLO*    LGT RAIN  57  55  94 N17       29.93S
WILLIAMSBURG*  CLOUDY    55  55 100 CALM      29.90S
MIDDLESBORO*   CLOUDY    58  58 100 CALM      29.89F
HARLAN APT*    CLOUDY    57  55  94 CALM      29.90S
HAZARD APT*    RAIN      57  57 100 CALM      29.89R
BLACK MTN*       N/A     50  50 100 S1          N/A
PIKE CO APT*   FOG       57  57 100 CALM      29.88S VSB 3/4
BIG SANDY APT* CLOUDY    58  58 100 CALM      29.88S
MOREHEAD APT*  CLOUDY    55  54  94 CALM      29.91S
$$

KYZ035-036-041-042-044-050-067-078-099-031000
...CENTRAL KENTUCKY...

CITY           SKY/WX    TMP DP  RH WIND       PRES   REMARKS
MT STERLING*   CLOUDY    54  52  94 CALM      29.91S
FLEMING/MASON* CLOUDY    54  51  91 N5        29.90F
DANVILLE*      CLOUDY    54  50  87 CALM      29.93S
RICHMOND*      CLOUDY    54  52  94 NW3       29.91S
LEXINGTON      CLOUDY    54  51  90 W3        29.91S
FRANKFORT      CLOUDY    55  49  80 CALM      29.90S
LOUISVILLE     CLOUDY    55  49  80 NW10      29.92S
LEBANON*         N/A     55  50  82 CALM      29.93R
BOWLING GREEN  CLOUDY    56  50  80 NW5       29.94S
$$

KYZ091>093-OHZ055-061-077-WVZ005-015-034-035-042-031000
...SOUTHERN OHIO/WEST VIRGINIA...

CITY           SKY/WX    TMP DP  RH WIND       PRES   REMARKS
COVINGTON      CLOUDY    54  52  93 NW5       29.90S
COLUMBUS       CLOUDY    47  44  90 NE6       29.90S
DAYTON         CLOUDY    49  45  86 N7        29.92S
WILMINGTON     CLOUDY    50  47  89 NE6       29.90R
HUNTINGTON     MOCLDY    58  55  90 NW3       29.87S
CHARLESTON     LGT RAIN  60  57  89 SW5       29.86R
PINEVILLE*     RAIN      59  56  91 MISG      29.93S
BECKLEY        LGT RAIN  55  54  96 W6        29.89R
$$

VAZ002-007-008-TNZ017-027-036-066-071-031000
...SOUTHWEST VIRGINIA/EAST TENNESSEE...

CITY           SKY/WX    TMP DP  RH WIND       PRES   REMARKS
WISE*          DRIZZLE   55  55 100 CALM      29.91S
BRISTOL        CLOUDY    59  57  93 CALM      29.89S
MORRISTOWN*    CLOUDY    61  59  94 CALM      29.88R
SEVIERVILLE*   CLOUDY    61  59  94 CALM      29.88S
KNOXVILLE      CLOUDY    62  59  90 CALM      29.87F
OAK RIDGE      LGT RAIN  61  59  93 CALM      29.89F
CROSSVILLE     CLOUDY    56  54  93 N3        29.91S FOG
NASHVILLE      CLOUDY    57  51  80 NW6       29.95S
$$

...KEY TO REMARKS...
VSB - VISIBILITY IN MILES
WCI - WIND CHILL INDEX
HX  - HEAT INDEX

$$




USA.gov is the U.S. government's official web portal to all federal, state and local government web resources and services.